TimeEST,TemperatureF,Dew PointF,Humidity,Sea Level PressureIn,VisibilityMPH,Wind Direction,Wind SpeedMPH,Gust SpeedMPH,PrecipitationIn,Events,Conditions,WindDirDegrees,DateUTC
12:15 AM,19.0,10.0,68,30.37,10.0,Calm,Calm,-,N/A,,Clear,0,2013-02-02 05:15:00
12:35 AM,17.4,10.9,76,30.38,10.0,Calm,Calm,-,N/A,,Clear,0,2013-02-02 05:35:00
12:55 AM,18.5,12.0,76,30.38,10.0,Calm,Calm,-,N/A,,Clear,0,2013-02-02 05:55:00
1:15 AM,17.6,12.2,79,30.37,10.0,Calm,Calm,-,N/A,,Clear,0,2013-02-02 06:15:00
1:55 AM,17.2,13.5,85,30.36,10.0,Calm,Calm,-,N/A,,Clear,0,2013-02-02 06:55:00
2:15 AM,17.6,13.6,84,30.36,10.0,Calm,Calm,-,N/A,,Clear,0,2013-02-02 07:15:00
2:55 AM,20.7,11.1,67,30.36,10.0,Calm,Calm,-,N/A,,Clear,0,2013-02-02 07:55:00
3:15 AM,18.5,11.5,74,30.36,10.0,Calm,Calm,-,N/A,,Clear,0,2013-02-02 08:15:00
3:35 AM,18.3,14.2,84,30.35,10.0,Calm,Calm,-,N/A,,Clear,0,2013-02-02 08:35:00
4:15 AM,19.2,14.5,82,30.34,10.0,Calm,Calm,-,N/A,,Clear,0,2013-02-02 09:15:00
4:35 AM,19.9,12.7,74,30.35,10.0,Calm,Calm,-,N/A,,Clear,0,2013-02-02 09:35:00
4:55 AM,17.1,13.5,86,30.35,10.0,Calm,Calm,-,N/A,,Clear,0,2013-02-02 09:55:00
5:15 AM,16.3,13.1,87,30.35,10.0,Calm,Calm,-,N/A,,Clear,0,2013-02-02 10:15:00
5:35 AM,15.1,12.2,88,30.35,10.0,Calm,Calm,-,N/A,,Clear,0,2013-02-02 10:35:00
5:55 AM,15.1,12.6,90,30.35,10.0,Calm,Calm,-,N/A,,Clear,0,2013-02-02 10:55:00
6:15 AM,16.0,12.9,88,30.36,10.0,Calm,Calm,-,N/A,,Clear,0,2013-02-02 11:15:00
6:35 AM,16.3,12.6,85,30.36,10.0,Calm,Calm,-,N/A,,Clear,0,2013-02-02 11:35:00
6:55 AM,15.1,12.0,88,30.35,10.0,Calm,Calm,-,N/A,,Clear,0,2013-02-02 11:55:00
7:15 AM,15.1,12.9,91,30.36,10.0,Calm,Calm,-,N/A,,Clear,0,2013-02-02 12:15:00
7:35 AM,14.9,12.9,92,30.36,10.0,Calm,Calm,-,N/A,,Clear,0,2013-02-02 12:35:00
7:55 AM,17.6,14.0,86,30.37,10.0,Calm,Calm,-,N/A,,Clear,0,2013-02-02 12:55:00
8:15 AM,21.0,14.4,75,30.37,10.0,Calm,Calm,-,N/A,,Clear,0,2013-02-02 13:15:00
8:35 AM,22.6,14.0,69,30.37,10.0,SW,3.5,-,N/A,,Clear,220,2013-02-02 13:35:00
8:55 AM,24.8,14.4,65,30.37,10.0,WSW,3.5,-,N/A,,Clear,240,2013-02-02 13:55:00
9:15 AM,26.1,14.2,61,30.36,10.0,SW,5.8,-,N/A,,Clear,220,2013-02-02 14:15:00
9:35 AM,27.1,14.7,60,30.36,10.0,SSW,4.6,-,N/A,,Clear,200,2013-02-02 14:35:00
9:55 AM,27.9,14.0,56,30.35,10.0,South,4.6,-,N/A,,Clear,190,2013-02-02 14:55:00
10:15 AM,30.0,13.3,50,30.34,10.0,SW,5.8,-,N/A,,Clear,220,2013-02-02 15:15:00
10:35 AM,30.2,12.6,48,30.33,10.0,SSW,5.8,-,N/A,,Clear,200,2013-02-02 15:35:00
10:55 AM,31.1,11.3,44,30.32,10.0,SW,6.9,-,N/A,,Scattered Clouds,220,2013-02-02 15:55:00
11:15 AM,31.6,11.8,44,30.30,10.0,SW,4.6,-,N/A,,Overcast,230,2013-02-02 16:15:00
11:35 AM,32.0,10.0,40,30.28,10.0,SW,9.2,-,N/A,,Overcast,230,2013-02-02 16:35:00
11:55 AM,33.3,9.9,38,30.26,10.0,SW,5.8,-,N/A,,Scattered Clouds,220,2013-02-02 16:55:00
12:15 PM,34.9,10.8,37,30.26,10.0,WSW,10.4,-,N/A,,Clear,250,2013-02-02 17:15:00
12:35 PM,36.0,10.2,34,30.23,10.0,SW,9.2,-,N/A,,Clear,230,2013-02-02 17:35:00
12:55 PM,35.6,10.4,35,30.21,10.0,SW,10.4,16.1,N/A,,Clear,220,2013-02-02 17:55:00
1:15 PM,36.5,10.4,34,30.19,10.0,SW,10.4,-,N/A,,Scattered Clouds,230,2013-02-02 18:15:00
1:35 PM,36.7,10.6,34,30.17,10.0,South,8.1,-,N/A,,Mostly Cloudy,180,2013-02-02 18:35:00
1:55 PM,37.6,11.5,34,30.17,10.0,SW,11.5,16.1,N/A,,Overcast,230,2013-02-02 18:55:00
2:15 PM,38.3,11.8,34,30.16,10.0,WSW,6.9,-,N/A,,Overcast,250,2013-02-02 19:15:00
2:35 PM,38.1,11.1,33,30.15,10.0,SSW,6.9,-,N/A,,Overcast,210,2013-02-02 19:35:00
2:55 PM,37.8,11.1,33,30.14,10.0,SW,8.1,-,N/A,,Overcast,220,2013-02-02 19:55:00
3:15 PM,37.9,11.7,34,30.14,10.0,SW,5.8,-,N/A,,Overcast,220,2013-02-02 20:15:00
3:35 PM,37.9,12.2,35,30.12,10.0,South,8.1,-,N/A,,Overcast,190,2013-02-02 20:35:00
3:55 PM,38.3,12.9,35,30.12,10.0,SSW,5.8,-,N/A,,Overcast,210,2013-02-02 20:55:00
4:15 PM,38.5,12.6,35,30.11,10.0,SSW,4.6,-,N/A,,Overcast,210,2013-02-02 21:15:00
4:35 PM,38.5,12.9,35,30.10,10.0,South,3.5,-,N/A,,Mostly Cloudy,170,2013-02-02 21:35:00
4:55 PM,38.7,13.5,36,30.09,10.0,South,5.8,-,N/A,,Mostly Cloudy,190,2013-02-02 21:55:00
5:15 PM,39.2,13.3,35,30.08,10.0,SSW,4.6,-,N/A,,Overcast,210,2013-02-02 22:15:00
5:35 PM,38.8,13.6,36,30.08,10.0,SSW,4.6,-,N/A,,Overcast,200,2013-02-02 22:35:00
5:55 PM,38.7,16.0,40,30.08,10.0,SSW,3.5,-,N/A,,Overcast,210,2013-02-02 22:55:00
6:15 PM,38.5,17.1,42,30.07,10.0,SSW,3.5,-,N/A,,Overcast,200,2013-02-02 23:15:00
6:35 PM,38.3,18.0,44,30.07,10.0,Calm,Calm,-,N/A,,Overcast,0,2013-02-02 23:35:00
6:55 PM,37.8,18.9,47,30.06,10.0,Calm,Calm,-,N/A,,Overcast,0,2013-02-02 23:55:00
7:15 PM,36.7,19.9,51,30.06,10.0,Calm,Calm,-,N/A,,Overcast,0,2013-02-03 00:15:00
7:35 PM,35.4,21.7,58,30.05,10.0,Calm,Calm,-,N/A,,Overcast,0,2013-02-03 00:35:00
7:55 PM,34.5,23.2,63,30.06,10.0,Calm,Calm,-,N/A,,Overcast,0,2013-02-03 00:55:00
8:15 PM,34.3,23.4,64,30.05,10.0,Calm,Calm,-,N/A,,Overcast,0,2013-02-03 01:15:00
8:35 PM,34.0,24.1,67,30.05,10.0,Calm,Calm,-,N/A,,Overcast,0,2013-02-03 01:35:00
8:55 PM,34.0,24.3,68,30.05,10.0,Calm,Calm,-,N/A,,Overcast,0,2013-02-03 01:55:00
9:15 PM,33.8,25.2,71,30.04,10.0,Calm,Calm,-,N/A,,Overcast,0,2013-02-03 02:15:00
9:35 PM,34.5,25.2,69,30.04,10.0,Calm,Calm,-,N/A,,Overcast,0,2013-02-03 02:35:00
9:55 PM,35.2,21.2,57,30.04,10.0,Calm,Calm,-,N/A,,Overcast,0,2013-02-03 02:55:00
10:15 PM,33.8,24.4,69,30.03,10.0,Calm,Calm,-,N/A,,Overcast,0,2013-02-03 03:15:00
10:35 PM,36.7,19.2,49,30.04,10.0,WSW,4.6,-,N/A,,Overcast,250,2013-02-03 03:35:00
10:55 PM,36.1,21.6,56,30.04,10.0,WSW,3.5,-,N/A,,Overcast,240,2013-02-03 03:55:00
11:15 PM,36.7,20.1,51,30.03,10.0,SSW,3.5,-,N/A,,Overcast,210,2013-02-03 04:15:00
11:35 PM,36.7,21.2,54,30.03,10.0,SW,4.6,-,N/A,,Overcast,220,2013-02-03 04:35:00
11:55 PM,36.1,27.9,72,30.02,10.0,SW,5.8,-,N/A,,Overcast,220,2013-02-03 04:55:00